Location: Unspecified
(0.0000°N, 0.0000°E)
Time: 23:39:42
(UTC+00:00)

Courier 1B Rocket - All Passes

Search period start: 25 January 2021 00:00
Search period end: 04 February 2021 00:00
Orbit: 920 x 1202 km, 28.2° (Epoch: 25 January)

Date Brightness Start Highest point End Pass type
(mag) Time Alt. Az. Time Alt. Az. Time Alt. Az.
25 Jan - 00:50:10 10° SW 00:55:45 33° SSE 01:01:16 10° E night (unlit)
25 Jan - 02:42:58 10° WSW 02:49:09 64° NNW 02:55:29 10° NE visible
25 Jan - 04:38:46 10° WNW 04:42:56 18° NNW 04:47:14 10° NNE visible
25 Jan - 10:28:18 10° N 10:30:08 11° NNE 10:32:00 10° NE daylight
25 Jan - 12:18:07 10° NNW 12:24:54 33° NNE 12:31:45 10° E daylight
25 Jan - 14:11:02 10° WNW 14:18:54 82° SSW 14:26:39 10° ESE daylight
25 Jan - 16:06:38 10° W 16:12:55 26° SSW 16:19:02 10° SSE daylight
25 Jan - 23:49:48 10° SSW 23:54:35 22° SSE 23:59:16 10° ESE night (unlit)
26 Jan - 01:41:53 10° WSW 01:48:10 82° SSE 01:54:27 10° ENE night (unlit)
26 Jan - 03:36:33 10° W 03:41:40 26° NNW 03:46:56 10° NNE visible
26 Jan - 11:17:39 10° NNW 11:23:23 23° NNE 11:29:16 10° ENE daylight
26 Jan - 13:09:47 10° NW 13:17:31 70° NNE 13:25:20 10° ESE daylight
26 Jan - 15:04:19 10° W 15:11:29 38° SSW 15:18:31 10° SE daylight
26 Jan - 17:02:58 10° SW 17:06:02 13° SSW 17:09:04 10° S daylight
26 Jan - 22:49:44 10° S 22:53:16 15° SSE 22:56:44 10° ESE night (unlit)
27 Jan - 00:41:00 10° SW 00:47:09 52° SSE 00:53:12 10° ENE night (unlit)
27 Jan - 02:34:46 10° W 02:40:33 39° NNW 02:46:24 10° NE night (unlit)
27 Jan - 04:32:42 10° NW 04:34:37 11° NNW 04:36:34 10° N visible
27 Jan - 10:17:37 10° N 10:21:49 16° NNE 10:26:08 10° ENE daylight
27 Jan - 12:08:50 10° NW 12:16:09 48° NNE 12:23:39 10° ESE daylight
27 Jan - 14:02:27 10° WNW 14:10:04 56° SSW 14:17:40 10° SE daylight
27 Jan - 15:59:16 10° WSW 16:04:23 18° SSW 16:09:24 10° SSE daylight
27 Jan - 21:50:49 10° S 21:51:47 10° SSE 21:52:44 10° SSE visible
27 Jan - 23:40:17 10° SW 23:46:05 34° SSE 23:51:41 10° E night (unlit)
28 Jan - 01:33:18 10° WSW 01:39:31 62° NNW 01:45:41 10° NE night (unlit)
28 Jan - 03:29:22 10° WNW 03:33:14 17° NNW 03:37:09 10° NNE visible
28 Jan - 09:19:01 10° NNE 09:20:09 10° NNE 09:21:18 10° NNE daylight
28 Jan - 11:08:10 10° NNW 11:14:45 33° NNE 11:21:35 10° E daylight
28 Jan - 13:00:58 10° WNW 13:08:41 80° SSW 13:16:34 10° ESE daylight
28 Jan - 14:56:28 10° W 15:02:48 26° SSW 15:09:05 10° SSE daylight
28 Jan - 22:39:46 10° SSW 22:44:53 23° SSE 22:49:48 10° ESE visible
29 Jan - 00:32:05 10° WSW 00:38:32 85° SSE 00:44:46 10° ENE night (unlit)
29 Jan - 02:27:00 10° W 02:32:00 25° NNW 02:37:02 10° NNE night (unlit)
29 Jan - 10:07:49 10° NNW 10:13:19 23° NNE 10:19:03 10° ENE daylight
29 Jan - 11:59:48 10° NW 12:07:20 72° NNE 12:15:09 10° ESE daylight
29 Jan - 13:54:14 10° W 14:01:18 38° SSW 14:08:27 10° SE daylight
29 Jan - 15:52:42 10° SW 15:56:00 13° SSW 15:59:16 10° S daylight
29 Jan - 21:39:28 10° SSW 21:43:31 16° SSE 21:47:26 10° ESE visible
29 Jan - 23:31:05 10° SW 23:37:30 55° SSE 23:43:37 10° ENE night (unlit)
30 Jan - 01:25:05 10° W 01:30:54 38° NNW 01:36:38 10° NE night (unlit)
30 Jan - 03:23:44 10° NNW 03:24:55 10° NNW 03:26:06 10° N night (unlit)
30 Jan - 09:07:57 10° N 09:11:49 15° NNE 09:15:49 10° ENE daylight
30 Jan - 10:58:57 10° NW 11:06:01 49° NNE 11:13:26 10° ESE daylight
30 Jan - 12:52:26 10° WNW 12:59:53 54° SSW 13:07:32 10° SE daylight
30 Jan - 14:49:09 10° WSW 14:54:17 18° SSW 14:59:23 10° SSE daylight
30 Jan - 20:39:43 10° S 20:41:59 12° SSE 20:44:11 10° SE visible
30 Jan - 22:30:14 10° SW 22:36:23 36° SSE 22:42:11 10° E visible
31 Jan - 00:23:29 10° WSW 00:29:52 60° NNW 00:36:01 10° NE night (unlit)
31 Jan - 02:19:51 10° WNW 02:23:33 16° NNW 02:27:15 10° NNE night (unlit)
31 Jan - 09:58:23 10° NNW 10:04:41 33° NNE 10:11:20 10° E daylight
31 Jan - 11:51:02 10° WNW 11:58:31 79° SSW 12:06:22 10° SE daylight
31 Jan - 13:46:27 10° W 13:52:40 26° SSW 13:58:58 10° SSE daylight
31 Jan - 21:29:34 10° SSW 21:35:08 25° SSE 21:40:23 10° E visible
31 Jan - 23:22:09 10° WSW 23:28:51 87° SSE 23:35:11 10° ENE night (unlit)
01 Feb - 01:17:17 10° W 01:22:20 24° NNW 01:27:18 10° NNE night (unlit)
01 Feb - 08:58:08 10° NNW 09:03:20 22° NNE 09:08:46 10° ENE daylight
01 Feb - 10:49:58 10° NW 10:57:13 73° NNE 11:04:55 10° ESE daylight
01 Feb - 12:44:18 10° W 12:51:09 37° SSW 12:58:14 10° SE daylight
01 Feb - 14:42:39 10° SW 14:45:55 13° SSW 14:49:12 10° S daylight
01 Feb - 20:29:06 10° SSW 20:33:42 18° SSE 20:38:07 10° ESE visible
01 Feb - 22:21:01 10° SW 22:27:47 58° SSE 22:34:06 10° ENE visible
02 Feb - 00:15:14 10° W 00:21:14 38° NNW 00:26:59 10° NE night (unlit)
02 Feb - 02:14:37 10° NNW 02:15:13 10° NNW 02:15:50 10° NNW night (unlit)
02 Feb - 07:58:25 10° N 08:01:54 14° NNE 08:05:31 10° NE daylight
02 Feb - 09:49:11 10° NW 09:55:57 49° NNE 10:03:11 10° ESE daylight
02 Feb - 11:42:36 10° WNW 11:49:44 53° SSW 11:57:17 10° SE daylight
02 Feb - 13:39:13 10° WSW 13:44:09 18° SSW 13:49:12 10° SSE daylight
02 Feb - 19:28:59 10° S 19:32:06 13° SSE 19:35:09 10° SE visible
02 Feb - 21:20:04 10° SW 21:26:36 39° SSE 21:32:41 10° E visible
02 Feb - 23:13:31 10° WSW 23:20:10 59° NNW 23:26:26 10° NE night (unlit)
03 Feb - 01:10:07 10° WNW 01:13:52 16° NNW 01:17:33 10° N night (unlit)
03 Feb - 08:48:42 10° NNW 08:54:43 32° NNE 09:01:06 10° E daylight
03 Feb - 10:41:16 10° WNW 10:48:25 77° SSW 10:56:05 10° SE daylight
03 Feb - 12:36:36 10° WSW 12:42:33 25° SSW 12:48:42 10° SSE daylight
03 Feb - 20:19:16 10° SSW 20:25:16 27° SSE 20:30:56 10° E visible
03 Feb - 22:12:03 10° WSW 22:19:06 90° SSE 22:25:38 10° ENE visible
